This demonstration page uses our WeatherBlox Daily Observations layout. Learn more.

Left ArrowRight Arrow

Hourly Observations for April 27, 2018

Temp ( °F °C ) Dew Point ( °F °C ) Humidity (%) Winds ( mph kmh ) Pressure ( in mb ) Visibility ( mi km ) Precip ( " mm )
12:53 am 00:53 Clear 46 7.8 41 5 83 83 Calm 29.83 1010 10 16 0.00 0.00
1:53 am 01:53 Clear 44 6.7 40 4.4 85 85 Calm 29.82 1010 10 16 0.00 0.00
2:53 am 02:53 Clear 44 6.7 40 4.4 85 85 Calm 29.80 1009 10 16 0.00 0.00
3:53 am 03:53 Clear 46 7.8 42 5.6 86 86 WNW 3 6 29.80 1009 10 16 0.00 0.00
4:53 am 04:53 Clear 45 7.2 41 5 86 86 WNW 3 6 29.79 1009 10 16 0.00 0.00
5:53 am 05:53 Clear 44 6.7 40 4.4 85 85 Calm 29.79 1009 10 16 0.00 0.00
6:53 am 06:53 Sunny 42 5.6 39 3.9 89 89 Calm 29.80 1009 10 16 0.00 0.00
7:53 am 07:53 Sunny 45 7.2 41 5 86 86 W 3 6 29.81 1010 10 16 0.00 0.00
8:53 am 08:53 Sunny 51 10.6 41 5 69 69 W 5 7 29.82 1010 10 16 0.00 0.00
9:53 am 09:53 Sunny 57 13.9 40 4.4 53 53 SW 5 7 29.80 1009 10 16 0.00 0.00
10:53 am 10:53 Sunny 63 17.2 37 2.8 38 38 WSW 9 15 29.80 1009 10 16 0.00 0.00
11:53 am 11:53 Sunny 67 19.4 37 2.8 33 33 SW 10 17 29.79 1009 10 16 0.00 0.00
12:53 pm 12:53 Sunny 70 21.1 36 2.2 29 29 WSW 13 20 29.77 1008 10 16 0.00 0.00
1:53 pm 13:53 Mostly Sunny 71 21.7 34 1.1 26 26 WSW 12 19 29.74 1007 10 16 0.00 0.00
2:53 pm 14:53 Mostly Cloudy with Light Rain 70 21.1 39 3.9 32 32 WNW 16 26 29.74 1007 10 16 0.00 0.03
3:53 pm 15:53 Mostly Sunny 69 20.6 44 6.7 41 41 WNW 20 31 29.74 1007 10 16 0.00 0.03
4:53 pm 16:53 Sunny 69 20.6 39 3.9 33 33 W 12 19 29.75 1007 10 16 0.00 0.00
5:53 pm 17:53 Sunny 68 20 33 0.6 27 27 WNW 20 31 29.76 1008 10 16 0.00 0.00
6:53 pm 18:53 Sunny 67 19.4 32 0 27 27 WNW 10 17 29.78 1008 10 16 0.00 0.00
7:53 pm 19:53 Sunny 64 17.8 29 -1.7 27 27 WNW 8 13 29.78 1008 10 16 0.00 0.00
8:53 pm 20:53 Clear 57 13.9 35 1.7 44 44 NW 5 7 29.80 1009 10 16 0.00 0.00
9:53 pm 21:53 Clear 47 8.3 38 3.3 71 71 Calm 29.80 1009 10 16 0.00 0.00
10:53 pm 22:53 Clear 47 8.3 39 3.9 74 74 Calm 29.81 1009 10 16 0.00 0.00
11:53 pm 23:53 Clear 45 7.2 41 5 86 86 Calm 29.80 1009 10 16 0.00 0.00

Powered by AerisWeather